Location: Long Geng
(2.6167°N, 114.1333°E)
Time: 13:07:44
(UTC+00:00)

Milstar 3 Cent rocket - Pass Details

Date: 14 May 2021
Orbit: 708 x 5145 km, 28.3° (Epoch: 15 June)

Event Time Altitude Azimuth Distance (km) Brightness Sun altitude
Exits shadow 21:40:55 - 228° (SW) 4,852 5.5 -8.3°
Reaches altitude 10° 21:43:07 10° 224° (SW) 4,078 5.2 -7.8°
Maximum altitude 21:51:44 40° 158° (SSE) 1,541 3.6 -5.8°
Drops below altitude 10° 21:56:47 10° 88° (E) 2,396 6.1 -4.6°
Sets 21:58:56 0° 79° (E) 3,181 7.7 -4.1°
